Terminal Aerodrome Forecast
Issued by NWS

Home | Current Version | Previous Version | Text Only | Print | Product List | Glossary On
Versions: 1 2 3 4 5 6 7 8 9 10 11 12 13 14 15 16 17 18 19 20 21 22 23
000
FTUS43 KDLH 290328 AAB
TAFHIB
TAF AMD
KHIB 290328Z 2903/2924 24011KT P6SM SCT080 WS010/25040KT
     FM291400 27018G35KT P6SM OVC050=

USA.gov is the U.S. government's official web portal to all federal, state and local government web resources and services.